[[{"header":{"parameterUnit":"m.s-1","parameterCategory":1,"la1":30.2991,"la2":30.254,"lo1":-89.0895,"lo2":-89.0444,"dy":0.0017,"dx":0.0017,"nx":28,"ny":28,"refTime":"2023-09-12T03:00:00:Z","depth":0,"parameterNumber":2,"parameterNumberName":"U-component_of_WINDS"},"data":[0,0,0,0,0,0,0,0,0,0,0,0,0,0,0,0,0,0,0,0,0,0,0,0,0,0,0,0,0,0,0,0,0,0,0,0,0,0,0,0,0,0,0,0,0,0,0,0,0,0,0,0,0,0,0,0,0,0,1.6324,1.6324,0,1.6343,1.6343,1.6343,1.6298,1.6297,1.6296,1.6294,1.6313,1.6314,1.6316,0,0,0,0,0,0,0,0,0,0,0,0,0,1.6248,1.6249,1.6324,1.6324,1.6324,1.6343,1.6343,1.6343,1.6299,1.6297,1.6295,1.6294,1.6312,1.6314,1.6316,0,0,0,0,0,0,0,0,0,0,0,0,0,1.6275,1.625,1.6324,1.6304,1.6303,1.6343,1.6343,1.6343,1.6299,1.6297,1.6295,1.6293,1.6311,1.6314,1.6317,1.6376,0,0,1.6325,1.6326,0,0,0,0,0,0,0,0,1.6274,1.6278,1.6307,1.6306,1.6304,1.6316,1.6323,1.6354,1.63,1.63,1.6294,1.6292,1.6315,1.6318,1.6326,1.6377,1.6378,1.6325,1.6327,1.6328,1.6329,0,0,0,0,0,0,0,1.6272,1.6277,1.6331,1.6307,1.6306,1.6294,1.6296,1.6328,1.632,1.63,1.6297,1.63,1.6314,1.6323,1.6326,1.6378,1.6325,1.6328,1.6329,1.633,1.6477,1.6479,0,0,0,0,0,0,1.6273,1.6276,1.6331,1.6332,1.6283,1.6297,1.6299,1.6314,1.6319,1.6318,1.6302,1.6298,1.632,1.6323,1.6326,1.6395,1.6328,1.6331,1.6332,1.6474,1.6477,1.648,0,0,0,0,0,0,1.6271,1.6278,1.633,1.6303,1.6309,1.6301,1.6318,1.6316,1.6325,1.632,1.6318,1.6313,1.6318,1.6323,1.6364,1.6395,1.6332,1.6334,1.6472,1.6475,1.6478,1.6533,0,0,0,0,0,0,1.6269,1.6278,1.6301,1.6304,1.631,1.6367,1.632,1.6318,1.633,1.6325,1.633,1.6329,1.6317,1.636,1.6366,1.6397,1.6336,1.6469,1.6473,1.6477,1.6528,1.6538,1.6546,0,0,0,0,0,1.6267,1.6315,1.6302,1.6309,1.6339,1.6369,1.6373,1.6358,1.6332,1.6355,1.6352,1.6329,1.6391,1.6364,1.6371,1.6404,1.6467,1.6472,1.6477,1.6524,1.6536,1.6545,0,0,0,0,0,0,1.6316,1.6315,1.6301,1.6352,1.6361,1.6362,1.639,1.6371,1.6388,1.6382,1.6363,1.6365,1.6409,1.6411,1.6381,1.646,1.6424,1.6431,1.6458,1.6469,1.6477,1.6475,1.6339,0,0,0,0,0,1.6333,1.6358,1.6356,1.6401,1.6407,1.6398,1.641,1.6398,1.6407,1.641,1.641,1.6419,1.644,1.6455,1.6474,1.6528,1.6528,1.6554,1.6563,1.657,1.6576,1.6603,1.6614,1.6496,1.6496,1.6496,0,0,1.6368,1.6371,1.6388,1.6411,1.6417,1.6443,1.6401,1.6431,1.6449,1.6415,1.6453,1.6453,1.6462,1.651,1.653,1.6512,1.6608,1.6577,1.6582,1.6584,1.6609,1.6621,1.663,1.65,1.6499,1.6498,0,0,1.6444,1.645,1.6487,1.6494,1.6503,1.6496,1.6505,1.6509,1.6508,1.6546,1.652,1.6542,1.658,1.6586,1.6595,1.6673,1.6652,1.668,1.6725,1.6752,1.6762,1.677,1.6796,1.6806,1.6686,1.6686,1.6686,0,1.6486,1.6525,1.6509,1.654,1.655,1.6521,1.6558,1.6565,1.658,1.6588,1.6567,1.6612,1.6616,1.6664,1.6683,1.6692,1.67,1.6679,1.6762,1.677,1.6777,1.6802,1.6812,1.6689,1.6689,1.6689,1.6688,0,1.6575,1.6602,1.6632,1.6646,1.6661,1.6695,1.6683,1.6699,1.6686,1.6682,1.672,1.6724,1.6743,1.6753,1.6741,1.6799,1.6788,1.6765,1.6728,1.6792,1.6815,1.6825,1.6694,1.6693,1.6692,1.6691,0,0,1.6683,1.6688,1.6699,1.6705,1.6713,1.6733,1.6765,1.6784,1.6797,1.6809,1.6835,1.6867,1.6845,1.6855,1.6843,1.6867,1.6927,1.6841,1.6841,1.6855,1.699,1.7006,1.7018,1.6914,1.6915,1.6917,1.6989,0,1.6757,1.6813,1.6799,1.6854,1.6878,1.685,1.6878,1.6885,1.6882,1.6901,1.6897,1.692,1.6891,1.6896,1.6918,1.6915,1.6953,1.691,1.6936,1.6937,1.6934,1.703,1.7047,1.7115,1.6998,1.7,1.7001,0,1.6852,1.6866,1.6923,1.6926,1.6935,1.6961,1.6976,1.6996,1.7003,1.6999,1.7009,1.6992,1.7023,1.6987,1.7029,1.7,1.701,1.701,1.7012,1.7013,1.6972,1.7032,1.7137,1.7146,1.7015,1.7014,1.7013,0,1.6922,1.6956,1.6995,1.7001,1.7005,1.7024,1.7026,1.7032,1.7043,1.7057,1.7064,1.7081,1.709,1.7104,1.7091,1.7066,1.7135,1.7098,1.7131,1.7132,1.7146,1.7145,1.7252,1.7155,1.7155,1.7155,1.7155,0,1.7006,1.7042,1.7026,1.705,1.7089,1.7073,1.7111,1.7111,1.7116,1.7138,1.7115,1.7136,1.712,1.7139,1.713,1.7165,1.717,1.7167,1.7164,1.7168,1.7168,1.7174,1.7168,1.7158,1.7157,1.7156,1.7156,0,1.7091,1.7082,1.7122,1.7123,1.7124,1.7152,1.7153,1.7174,1.7169,1.7198,1.7203,1.7195,1.7217,1.7207,1.723,1.7223,1.7269,1.726,1.7266,1.7263,1.7297,1.7293,1.741,1.7424,1.7319,1.732,1.7321,0,1.7144,1.7171,1.7175,1.7188,1.7192,1.7214,1.7226,1.7211,1.7224,1.7234,1.7254,1.7274,1.7289,1.7325,1.7321,1.7339,1.7329,1.7369,1.7332,1.7335,1.7328,1.7326,1.7328,1.7376,1.7377,1.7378,1.7379,0,1.7239,1.7233,1.7251,1.7268,1.7282,1.7295,1.7305,1.7317,1.7302,1.7318,1.734,1.7352,1.7375,1.7395,1.741,1.7412,1.7393,1.7391,1.7399,1.7403,1.7405,1.7403,1.7285,1.7388,1.7387,1.7387,1.7386,1.7386,1.7309,1.7331,1.7336,1.7357,1.7363,1.7373,1.7393,1.739,1.7408,1.7426,1.7416,1.7442,1.7448,1.7466,1.7471,1.749,1.7474,1.7487,1.749,1.7493,1.7496,1.7404,1.7493,1.7493,1.7492,1.7492,1.7492,0,1.7401,1.7403,1.7422,1.7437,1.7453,1.7434,1.7445,1.7459,1.7482,1.7489,1.7504,1.7529,1.7548,1.7546,1.7563,1.7579,1.757,1.7584,1.7582,1.7582,1.751,1.7501,1.759,1.759,1.759,1.759,1.759,1.759,1.7451,1.7486,1.7481,1.752,1.7522,1.7546,1.7554,1.7562,1.7568,1.7597,1.7613,1.7611,1.7614,1.7631,1.7647,1.7646,1.7653,1.7669,1.7665,1.7597,1.7587,1.7578,1.7569,1.7671,1.7671,1.7735,1.7735,1.7736]},{"header":{"parameterUnit":"m.s-1","parameterCategory":1,"la1":30.2991,"la2":30.254,"lo1":-89.0895,"lo2":-89.0444,"dy":0.0017,"dx":0.0017,"nx":28,"ny":28,"refTime":"2023-09-12T03:00:00:Z","depth":0,"parameterNumber":3,"parameterNumberName":"V-component_of_WINDS"},"data":[0,0,0,0,0,0,0,0,0,0,0,0,0,0,0,0,0,0,0,0,0,0,0,0,0,0,0,0,0,0,0,0,0,0,0,0,0,0,0,0,0,0,0,0,0,0,0,0,0,0,0,0,0,0,0,0,0,0,4.2853,4.2853,0,4.2832,4.2832,4.2832,4.2764,4.2763,4.2761,4.276,4.2739,4.274,4.2741,0,0,0,0,0,0,0,0,0,0,0,0,0,4.2833,4.2834,4.2853,4.2852,4.2852,4.2832,4.2832,4.2832,4.2765,4.2763,4.2761,4.2759,4.2739,4.274,4.2741,0,0,0,0,0,0,0,0,0,0,0,0,0,4.283,4.2834,4.2853,4.2816,4.2813,4.2832,4.2832,4.2832,4.2765,4.2763,4.276,4.2758,4.2739,4.274,4.2741,4.2795,0,0,4.2745,4.2746,0,0,0,0,0,0,0,0,4.283,4.2831,4.2822,4.2819,4.2815,4.2798,4.2818,4.282,4.2766,4.2783,4.276,4.2757,4.2761,4.276,4.2762,4.2794,4.2793,4.2746,4.2746,4.2747,4.2747,0,0,0,0,0,0,0,4.2831,4.2831,4.2845,4.2822,4.2818,4.2801,4.2798,4.2818,4.2785,4.2781,4.2776,4.2775,4.2759,4.276,4.2761,4.2793,4.2746,4.2747,4.2747,4.2748,4.2866,4.2868,0,0,0,0,0,0,4.2836,4.2832,4.2845,4.2844,4.2817,4.2803,4.28,4.2806,4.2785,4.2779,4.2777,4.2772,4.2759,4.2759,4.276,4.2819,4.2747,4.2748,4.2749,4.2864,4.2867,4.2869,0,0,0,0,0,0,4.2836,4.2838,4.2846,4.2837,4.2836,4.2806,4.2813,4.2807,4.2808,4.2781,4.2775,4.2785,4.2758,4.2758,4.2786,4.2817,4.2749,4.275,4.2861,4.2865,4.2868,4.2939,0,0,0,0,0,0,4.2836,4.2838,4.2858,4.2838,4.2837,4.2873,4.2815,4.2808,4.2811,4.2804,4.2787,4.2782,4.2756,4.2785,4.2788,4.2818,4.2751,4.2858,4.2863,4.2867,4.2934,4.2945,4.2954,0,0,0,0,0,4.2835,4.288,4.286,4.2862,4.2862,4.2875,4.2875,4.2844,4.2814,4.2833,4.2816,4.2782,4.2814,4.2788,4.2791,4.2822,4.2856,4.2861,4.2867,4.293,4.2943,4.2954,0,0,0,0,0,0,4.2905,4.2876,4.2854,4.2893,4.2887,4.2864,4.2888,4.2859,4.2862,4.2855,4.2817,4.2814,4.2847,4.2838,4.2809,4.2872,4.2829,4.2835,4.2876,4.2889,4.2899,4.2899,4.2752,0,0,0,0,0,4.2926,4.2939,4.2913,4.295,4.2948,4.2919,4.2924,4.29,4.2892,4.289,4.2874,4.2868,4.2876,4.2882,4.2888,4.2933,4.2927,4.2956,4.2966,4.2975,4.298,4.3001,4.3012,4.2887,4.2887,4.2887,0,0,4.2967,4.2953,4.2964,4.2964,4.2956,4.2971,4.2917,4.2935,4.2945,4.2892,4.2917,4.2906,4.2896,4.2933,4.2948,4.2926,4.3013,4.2981,4.2988,4.2989,4.3007,4.3019,4.303,4.289,4.289,4.2889,0,0,4.3049,4.3041,4.307,4.3063,4.3053,4.3032,4.304,4.3021,4.3011,4.3035,4.2996,4.3007,4.3023,4.3017,4.3016,4.3096,4.3065,4.31,4.3151,4.3172,4.3182,4.3191,4.3217,4.3227,4.3105,4.3105,4.3105,0,4.3102,4.3122,4.3089,4.3108,4.3109,4.3062,4.309,4.3086,4.3078,4.3079,4.3055,4.3072,4.3063,4.3096,4.3116,4.3117,4.3123,4.31,4.3183,4.3192,4.3199,4.3224,4.3234,4.3109,4.3109,4.3108,4.3108,0,4.3186,4.3201,4.3226,4.3218,4.3222,4.3246,4.3216,4.3224,4.32,4.3183,4.3208,4.3195,4.3197,4.3203,4.3181,4.3233,4.322,4.319,4.3146,4.3216,4.3238,4.3248,4.3115,4.3114,4.3113,4.3112,0,0,4.3311,4.3285,4.3294,4.3289,4.3274,4.3284,4.3307,4.3308,4.3314,4.3311,4.3327,4.3341,4.3313,4.3313,4.3289,4.3308,4.3369,4.3276,4.3275,4.3292,4.3424,4.3445,4.3456,4.335,4.3351,4.3353,4.3424,0,4.3388,4.3423,4.3393,4.3434,4.3445,4.3401,4.342,4.3412,4.3397,4.3405,4.3388,4.3397,4.3361,4.336,4.3376,4.3359,4.3395,4.3353,4.3363,4.3364,4.3365,4.3468,4.349,4.3558,4.3433,4.3434,4.3435,0,4.3481,4.348,4.3522,4.3502,4.3506,4.3524,4.3522,4.353,4.3521,4.3508,4.3507,4.3478,4.3498,4.3456,4.3482,4.3454,4.3457,4.3449,4.345,4.3448,4.3402,4.3467,4.3579,4.3589,4.3449,4.3448,4.3447,0,4.3565,4.3575,4.3601,4.3598,4.3577,4.359,4.3582,4.357,4.3572,4.3571,4.3572,4.3574,4.3574,4.3576,4.3548,4.3521,4.3576,4.3533,4.3565,4.3566,4.3577,4.3576,4.3689,4.3583,4.3583,4.3582,4.3582,0,4.3652,4.3678,4.3638,4.3653,4.3681,4.3647,4.3676,4.3663,4.3653,4.3665,4.3628,4.364,4.3603,4.3611,4.359,4.3613,4.3615,4.3604,4.3597,4.3606,4.3607,4.3605,4.3599,4.3585,4.3584,4.3584,4.3584,0,4.375,4.3724,4.3748,4.3726,4.3721,4.3742,4.3723,4.3736,4.3718,4.3734,4.3735,4.3707,4.3715,4.3687,4.3691,4.3676,4.371,4.3697,4.3713,4.3708,4.3741,4.3737,4.3855,4.3868,4.3756,4.3757,4.3758,0,4.3805,4.3825,4.3804,4.3809,4.3802,4.3812,4.3813,4.3781,4.3784,4.3774,4.3789,4.3793,4.3794,4.3808,4.3788,4.379,4.3775,4.3817,4.3775,4.3783,4.3773,4.3771,4.3772,4.3824,4.3826,4.3827,4.3828,0,4.3907,4.3893,4.3897,4.3896,4.3899,4.3898,4.3893,4.39,4.3865,4.387,4.3877,4.3878,4.3881,4.3886,4.3883,4.3874,4.3845,4.3841,4.3848,4.3856,4.3863,4.3858,4.3734,4.3838,4.3837,4.3836,4.3836,4.3835,4.3983,4.3998,4.3985,4.399,4.3984,4.398,4.3991,4.3974,4.3979,4.3978,4.3959,4.397,4.3959,4.3952,4.3947,4.3954,4.3935,4.3945,4.3948,4.395,4.3955,4.3864,4.3954,4.3953,4.3953,4.3953,4.3953,0,4.4081,4.407,4.4076,4.407,4.4074,4.4047,4.404,4.4046,4.4055,4.4047,4.4049,4.4057,4.406,4.4041,4.4042,4.4051,4.4038,4.4052,4.405,4.4048,4.3973,4.3966,4.4063,4.4063,4.4063,4.4063,4.4063,4.4063,4.4132,4.4153,4.4138,4.4156,4.4145,4.4155,4.4153,4.415,4.4143,4.4153,4.4155,4.4143,4.413,4.4129,4.4131,4.4125,4.4126,4.4146,4.4135,4.4065,4.4054,4.4043,4.4036,4.4147,4.4147,4.4209,4.4209,4.421]}]]